When you browse on this site, cookies collect data to enhance your experience and personalize the content and advertising you see.
Visit our Privacy Policy to learn more. By continuing to use the site, you agree to this use of cookies and data.
  • In Czech Republic
  • List of Countries
  • For 7 days
  • Water Temperature
  • Weather Map
  • Weather Widgets
  • user-avatar
    Login

    Hourly Weather Leipzig

    Today, 23 February, Sunday

    Time Temperature Precipitation Wind Pressure Humidity
    00:00 +7°C° 0.1 mm 8 mps 753 mmHg 75%
    01:00 +7°C° 0.1 mm 8 mps 753 mmHg 77%
    02:00 +7°C° 0.5 mm 8 mps 752 mmHg 78%
    03:00 +8°C° 0.5 mm 7 mps 752 mmHg 80%
    04:00 +8°C° 0.5 mm 7 mps 751 mmHg 81%
    05:00 +7°C° 0.6 mm 6 mps 751 mmHg 82%
    06:00 +7°C° 0.6 mm 6 mps 751 mmHg 84%
    07:00 +7°C° 0.6 mm 6 mps 751 mmHg 85%
    08:00 +7°C° 0.3 mm 6 mps 751 mmHg 86%
    09:00 +7°C° 0.3 mm 5 mps 750 mmHg 86%
    10:00 +7°C° 0.3 mm 5 mps 750 mmHg 86%
    11:00 +8°C° 0.7 mm 6 mps 748 mmHg 86%
    12:00 +8°C° 0.7 mm 6 mps 747 mmHg 86%
    13:00 +9°C° 0.7 mm 7 mps 746 mmHg 86%
    14:00 +10°C° 0.9 mm 9 mps 744 mmHg 85%
    15:00 +9°C° 0.9 mm 11 mps 743 mmHg 83%
    16:00 +10°C° 0.9 mm 13 mps 742 mmHg 81%
    17:00 +10°C° 0.8 mm 12 mps 742 mmHg 78%
    18:00 +10°C° 0.8 mm 12 mps 743 mmHg 76%
    19:00 +9°C° 0.8 mm 12 mps 743 mmHg 73%
    20:00 +7°C° 0.1 mm 12 mps 745 mmHg 71%
    21:00 +5°C° 0.1 mm 12 mps 746 mmHg 68%
    22:00 +3°C° 0.1 mm 12 mps 748 mmHg 66%
    23:00 +2°C° 0 mm 10 mps 750 mmHg 68%

    Tomorrow, 24 February, Monday

    Time Temperature Precipitation Wind Pressure Humidity
    00:00 +1°C° 0 mm 9 mps 751 mmHg 69%
    01:00 0°C° 0 mm 7 mps 753 mmHg 71%
    02:00 0°C° 0 mm 7 mps 753 mmHg 73%
    03:00 +1°C° 0 mm 6 mps 754 mmHg 75%
    04:00 +1°C° 0 mm 6 mps 754 mmHg 76%
    05:00 -1°C° 0 mm 6 mps 755 mmHg 78%
    06:00 -1°C° 0 mm 6 mps 755 mmHg 79%
    07:00 0°C° 0 mm 5 mps 755 mmHg 81%
    08:00 +1°C° 0 mm 5 mps 755 mmHg 78%
    09:00 +2°C° 0 mm 5 mps 755 mmHg 75%
    10:00 +3°C° 0 mm 5 mps 755 mmHg 72%
    11:00 +3°C° 0 mm 5 mps 755 mmHg 69%
    12:00 +5°C° 0 mm 5 mps 754 mmHg 66%
    13:00 +5°C° 0 mm 5 mps 753 mmHg 63%
    14:00 +5°C° 0.1 mm 5 mps 752 mmHg 68%
    15:00 +3°C° 0.1 mm 5 mps 751 mmHg 74%
    16:00 +2°C° 0.1 mm 5 mps 749 mmHg 79%
    17:00 +3°C° 0.1 mm 5 mps 748 mmHg 79%
    18:00 +6°C° 0.1 mm 5 mps 747 mmHg 79%
    19:00 +7°C° 0.1 mm 6 mps 746 mmHg 80%
    20:00 +7°C° 0 mm 6 mps 745 mmHg 80%
    21:00 +8°C° 0 mm 6 mps 744 mmHg 80%
    22:00 +9°C° 0 mm 7 mps 743 mmHg 81%
    23:00 +9°C° 0 mm 7 mps 743 mmHg 79%

    Day after tomorrow, 25 February, Tuesday

    Time Temperature Precipitation Wind Pressure Humidity
    00:00 +9°C° 0 mm 8 mps 742 mmHg 76%
    01:00 +9°C° 0 mm 8 mps 741 mmHg 74%
    02:00 +9°C° 0 mm 8 mps 741 mmHg 75%
    03:00 +9°C° 0 mm 8 mps 741 mmHg 76%
    04:00 +9°C° 0 mm 8 mps 740 mmHg 78%
    05:00 +8°C° 0.1 mm 7 mps 740 mmHg 78%
    06:00 +8°C° 0.1 mm 6 mps 740 mmHg 79%
    07:00 +7°C° 0.1 mm 6 mps 740 mmHg 79%
    08:00 +7°C° 0 mm 6 mps 740 mmHg 75%
    09:00 +6°C° 0 mm 7 mps 740 mmHg 70%
    10:00 +6°C° 0 mm 8 mps 740 mmHg 65%
    11:00 +6°C° 0 mm 8 mps 740 mmHg 62%
    12:00 +6°C° 0 mm 9 mps 740 mmHg 60%
    13:00 +6°C° 0 mm 9 mps 739 mmHg 58%
    14:00 +6°C° 0 mm 9 mps 739 mmHg 57%
    15:00 +6°C° 0 mm 8 mps 739 mmHg 55%
    16:00 +6°C° 0 mm 8 mps 739 mmHg 54%
    17:00 +5°C° 0 mm 7 mps 739 mmHg 58%
    18:00 +4°C° 0 mm 6 mps 739 mmHg 61%
    19:00 +4°C° 0 mm 4 mps 739 mmHg 65%
    20:00 +3°C° 0 mm 5 mps 739 mmHg 68%
    21:00 +3°C° 0 mm 5 mps 739 mmHg 71%
    22:00 +2°C° 0 mm 5 mps 738 mmHg 74%
    23:00 +2°C° 0.1 mm 5 mps 738 mmHg 77%

    26 February, Wednesday

    Time Temperature Precipitation Wind Pressure Humidity
    00:00 +2°C° 0.1 mm 5 mps 737 mmHg 81%
    01:00 +3°C° 0.1 mm 4 mps 737 mmHg 84%
    02:00 +1°C° 0.8 mm 4 mps 736 mmHg 87%
    03:00 +1°C° 0.8 mm 4 mps 735 mmHg 89%
    04:00 +1°C° 0.8 mm 4 mps 735 mmHg 92%
    05:00 +2°C° 0.2 mm 3 mps 734 mmHg 92%
    06:00 +2°C° 0.2 mm 3 mps 734 mmHg 92%
    07:00 +3°C° 0.2 mm 2 mps 733 mmHg 92%
    08:00 +1°C° 0.9 mm 4 mps 733 mmHg 88%
    09:00 +1°C° 0.9 mm 6 mps 733 mmHg 85%
    10:00 -1°C° 0.9 mm 8 mps 734 mmHg 81%
    11:00 0°C° 0.1 mm 8 mps 734 mmHg 75%
    12:00 +1°C° 0.1 mm 8 mps 735 mmHg 69%
    13:00 +2°C° 0.1 mm 8 mps 735 mmHg 63%
    14:00 +2°C° 0.2 mm 8 mps 736 mmHg 66%
    15:00 +1°C° 0.2 mm 8 mps 736 mmHg 69%
    16:00 +1°C° 0.2 mm 8 mps 737 mmHg 72%
    17:00 0°C° 0.1 mm 7 mps 737 mmHg 75%
    18:00 +1°C° 0.1 mm 6 mps 738 mmHg 79%
    19:00 0°C° 0.1 mm 4 mps 739 mmHg 82%
    20:00 0°C° 0 mm 5 mps 740 mmHg 83%
    21:00 0°C° 0 mm 5 mps 740 mmHg 83%
    22:00 0°C° 0 mm 5 mps 741 mmHg 84%
    23:00 0°C° 0 mm 5 mps 742 mmHg 84%

    27 February, Thursday

    Time Temperature Precipitation Wind Pressure Humidity
    00:00 -1°C° 0 mm 5 mps 742 mmHg 84%
    01:00 -1°C° 0 mm 5 mps 743 mmHg 84%
    02:00 -1°C° 0 mm 5 mps 743 mmHg 85%
    03:00 -1°C° 0 mm 5 mps 744 mmHg 85%
    04:00 -1°C° 0 mm 5 mps 744 mmHg 86%
    05:00 -1°C° 0 mm 5 mps 745 mmHg 85%
    06:00 -2°C° 0 mm 6 mps 745 mmHg 83%
    07:00 -2°C° 0 mm 6 mps 746 mmHg 82%
    08:00 -1°C° 0 mm 6 mps 746 mmHg 79%
    09:00 0°C° 0 mm 7 mps 747 mmHg 76%
    10:00 0°C° 0 mm 7 mps 747 mmHg 74%
    11:00 +2°C° 0 mm 7 mps 747 mmHg 70%
    12:00 +3°C° 0 mm 7 mps 748 mmHg 67%
    13:00 +3°C° 0 mm 7 mps 748 mmHg 64%
    14:00 +3°C° 0 mm 7 mps 747 mmHg 62%
    15:00 +3°C° 0 mm 6 mps 747 mmHg 60%
    16:00 +4°C° 0 mm 6 mps 747 mmHg 59%
    17:00 +3°C° 0 mm 5 mps 746 mmHg 62%
    18:00 +2°C° 0 mm 5 mps 746 mmHg 66%
    19:00 +1°C° 0 mm 4 mps 745 mmHg 69%
    20:00 +1°C° 0.1 mm 5 mps 745 mmHg 74%
    21:00 +1°C° 0.1 mm 6 mps 744 mmHg 78%
    22:00 0°C° 0.1 mm 7 mps 743 mmHg 83%
    23:00 0°C° 0.3 mm 7 mps 743 mmHg 83%

    28 February, Friday

    Time Temperature Precipitation Wind Pressure Humidity
    00:00 +2°C° 0.3 mm 6 mps 742 mmHg 83%
    01:00 +3°C° 0.3 mm 6 mps 741 mmHg 84%
    02:00 +4°C° 0 mm 6 mps 741 mmHg 83%
    03:00 +4°C° 0 mm 6 mps 741 mmHg 83%
    04:00 +5°C° 0 mm 7 mps 740 mmHg 82%
    05:00 +5°C° 0 mm 6 mps 740 mmHg 83%
    06:00 +4°C° 0 mm 6 mps 741 mmHg 83%
    07:00 +5°C° 0 mm 5 mps 741 mmHg 84%
    08:00 +5°C° 0.1 mm 6 mps 741 mmHg 82%
    09:00 +5°C° 0.1 mm 7 mps 741 mmHg 81%
    10:00 +6°C° 0.1 mm 8 mps 742 mmHg 79%
    11:00 +6°C° 0.1 mm 7 mps 742 mmHg 81%
    12:00 +8°C° 0.1 mm 6 mps 742 mmHg 82%
    13:00 +8°C° 0.1 mm 5 mps 742 mmHg 84%
    14:00 +8°C° 0 mm 6 mps 742 mmHg 83%
    15:00 +8°C° 0 mm 6 mps 742 mmHg 81%
    16:00 +9°C° 0 mm 6 mps 742 mmHg 80%
    17:00 +8°C° 0 mm 6 mps 742 mmHg 80%
    18:00 +8°C° 0 mm 6 mps 741 mmHg 79%
    19:00 +8°C° 0 mm 6 mps 741 mmHg 79%
    20:00 +8°C° 0 mm 6 mps 741 mmHg 79%
    21:00 +8°C° 0 mm 7 mps 741 mmHg 78%
    22:00 +8°C° 0 mm 7 mps 740 mmHg 78%
    23:00 +8°C° 0 mm 7 mps 740 mmHg 78%
    Show more